Showing default

OPS 8464 (TRANSIT 5B-7), 1514

Orbit data source: Space-Track

OPS 8464 (TRANSIT 5B-7), 1514 is a payload satellite owned by USN BuWeps (US) in LEO that was launched on Fri, 13 Aug 1965 UTC via a THOR ABLESTAR launch vehicle from the Air Force Western Test Range (AFWTR). Payload-class satellites include a variety of spacecraft equipped with specific instruments for various scientific and technological missions. These include communications satellites like Starlink; space stations such as the ISS; scientific satellites like the Hubble; Earth observation satellites from companies like Planet Labs, Umbra, and HawkEye 360; GPS; miniature CubeSats for education and research; and military/defense satellites.

Loading next visibility...
Identifier
1514, 1965-065F
Orbit
LEO
Country
Flag of USUS
Related business
Manufacturer
NAFI
Mission
Spacecraft
Bus & Motor
TRANSIT 5, Unknown motor
Mass
~54 kg wet, ~54 kg dry
Launch date (UTC)
1965-08-13 (60 years ago)
Launch vehicle
THOR ABLESTAR
Launch site
Air Force Western Test Range (AFWTR)
Object type
Payload
Rocket body
Debris
Shape & HBR
Unknown
Radar Cross Section
Large (>1 m²)

Expand to show TLE details & history
Last TLE update: 14 hours ago

TLE from 14 hours ago
0 OPS 8464 (TRANSIT 5B-7)
1 01514U 65065F   25355.21610619  .00000078  00000-0  13566-3 0  9998
2 01514  89.9844 228.0513 0068960 303.0330 176.8770 13.35336737937519
Epoch: 2025-12-21T05:11Z
TLE epoch observation values (Epoch: 2025-12-21T05:11:11.574Z)
Latitude
60.13557°
Longitude
-119.8057°
Altitude
1,188.698 km
Speed
7.24 km/s
True Right ascension
03h 12m 05s
True Declination
59° 59' 43"
Sunlit
Object was in full shadow at epoch
Visualization orbit readout
Latitude
Unknown
Longitude
Unknown
Altitude
Unknown
Speed
Unknown
Apparent Right ascension
Unknown
Apparent Declination
Unknown
Sunlit
N/A
Visualization observer readout
Local Sidereal Time
17:45:09
Azimuth
Unknown
Elevation
Unknown
Doppler factor
Unknown
Orbital elements
Apogee altitude
1,175.505 km
Perigee altitude
1,072.039 km
Semi-major axis
7,501.909 km
Eccentricity
0.0069
Inclination
89.9844°
RAAN
228.0513°
Arg. of periapsis
303.033°
True anomaly
176.91968°
Mean anomaly
176.877°
Eccentric anomaly
176.89838°
Mean motion
3.3403 °/min
Orbital period
107.77 mins
BSTAR
0.00013566
Loading maneuver chart data...
Computing Atmospheric mass density...
Loading historical data...
Loading historical data...
Loading historical data...
Loading historical data...
Loading historical data...
Loading historical data...
Loading historical data...

Documentation

Showing up to 5 results
|